Zurück zum Katalog

MIRANDA

X-4

AktivWissenschaftPO
NORAD 7213·PAYLOAD·🇬🇧 United Kingdom

Gestartet Mar 9, 1974 von Vandenberg Space Force Base

Loading…

Nächste Überflüge (nächste 24 Stunden)

TLE

AktuellSource: Space-Track

Epoche: Sep 14, 2026, 00:36 UTC

1 07213U 74013A   26257.02520080  .00000286  00000-0  84633-4 0  9991
2 07213  97.7919 105.3616 0113854  64.8187 296.4762 14.46175084732474

Verfolge MIRANDA in Echtzeit mit AllMySat

Download on the App Store